Temperature
0 0 -1 -1 -1 -1 -2 -1 -0 1 0 -0 -1 -2 -3 -3 -4 -4 -5 -5 -5 -5 -5 -5 -5 -5 -5 -5 -5 -4 -4 -4 -4 -4 -4 -4 -4 -4 -3 -3 -3 -3 -3 -2
-1 -1 -2 -2 -2 -1 -2 -2 -2 -2 -1 -2 -3 -4 -4 -4 -5 -5 -6 -6 -6 -6 -6 -6 -6 -5 -6 -6 -5 -5 -5 -5 -5 -5 -5 -4 -4 -4 -4 -4 -3 -3 -3 -3
0 -1 -2 -1 -2 -2 -3 -3 -3 -2 -2 -3 -4 -4 -5 -6 -6 -6 -7 -7 -7 -7 -7 -6 -6 -6 -6 -6 -6 -6 -5 -5 -5 -5 -5 -5 -4 -4 -4 -4 -4 -4 -4 -3
-1 -1 -1 -0 -3 -3 -3 -4 -4 -4 -4 -4 -5 -6 -7 -7 -7 -7 -7 -7 -7 -7 -7 -6 -6 -6 -6 -6 -6 -6 -6 -6 -6 -5 -5 -5 -5 -5 -5 -4 -4 -4 -4 -4
-2 -1 -1 -1 -3 -4 -4 -4 -5 -5 -5 -5 -6 -6 -6 -7 -7 -8 -8 -8 -8 -7 -7 -7 -7 -7 -7 -7 -7 -7 -6 -6 -6 -6 -5 -5 -5 -5 -5 -5 -5 -4 -4 -4
-2 -2 -1 -2 -4 -6 -4 -4 -5 -6 -6 -6 -7 -5 -5 -7 -8 -8 -8 -8 -8 -8 -8 -8 -8 -8 -8 -7 -7 -7 -7 -6 -6 -6 -6 -6 -6 -5 -5 -5 -5 -5 -5 -4
-3 -3 -2 -4 -6 -5 -3 -3 -6 -7 -7 -7 -7 -7 -8 -9 -9 -9 -9 -9 -9 -8 -8 -8 -8 -8 -8 -8 -8 -7 -7 -7 -7 -7 -6 -6 -6 -6 -6 -6 -6 -6 -5 -5
-4 -3 -3 -6 -6 -5 -5 -7 -7 -8 -8 -9 -9 -9 -9 -9 -10 -9 -9 -9 -9 -9 -9 -9 -9 -9 -9 -8 -8 -8 -7 -7 -7 -7 -7 -7 -6 -6 -6 -6 -6 -6 -6 -6
-5 -4 -6 -7 -7 -7 -8 -8 -8 -9 -9 -9 -10 -10 -10 -10 -10 -10 -10 -10 -10 -10 -10 -10 -10 -9 -9 -9 -9 -8 -8 -7 -7 -7 -7 -7 -7 -7 -7 -7 -7 -7 -7 -7
-6 -6 -7 -8 -8 -8 -9 -9 -9 -9 -10 -10 -10 -10 -11 -11 -11 -10 -10 -10 -10 -10 -10 -10 -10 -10 -10 -9 -9 -9 -8 -8 -8 -8 -8 -8 -8 -8 -8 -8 -8 -8 -8 -8
-7 -7 -8 -8 -9 -9 -9 -9 -10 -10 -10 -10 -10 -11 -11 -11 -11 -11 -11 -11 -11 -11 -11 -11 -10 -10 -10 -10 -10 -9 -9 -9 -8 -8 -8 -8 -8 -8 -8 -8 -9 -9 -9 -9
-7 -8 -9 -9 -9 -10 -10 -10 -10 -10 -10 -11 -11 -11 -11 -11 -11 -11 -11 -11 -11 -11 -11 -11 -11 -10 -10 -10 -10 -10 -10 -9 -9 -9 -9 -9 -9 -9 -9 -9 -9 -9 -9 -9
-10 -10 -10 -10 -10 -10 -11 -11 -11 -11 -11 -11 -11 -11 -11 -12 -12 -12 -12 -11 -11 -11 -11 -11 -11 -11 -11 -11 -10 -10 -10 -10 -10 -10 -10 -10 -10 -9 -9 -9 -9 -9 -9 -9
-10 -11 -11 -11 -11 -11 -11 -11 -11 -11 -11 -12 -12 -12 -12 -12 -12 -12 -12 -12 -12 -12 -12 -11 -11 -11 -11 -11 -11 -11 -11 -11 -11 -11 -10 -10 -10 -10 -10 -10 -10 -9 -9 -9
-11 -11 -11 -11 -11 -11 -11 -11 -12 -12 -12 -12 -12 -12 -12 -12 -12 -12 -12 -12 -12 -12 -12 -12 -12 -12 -12 -11 -11 -11 -11 -11 -11 -11 -11 -11 -11 -11 -11 -11 -11 -11 -10 -10
-11 -11 -11 -11 -11 -12 -12 -12 -12 -12 -12 -12 -13 -13 -13 -13 -13 -13 -13 -13 -12 -12 -12 -12 -12 -12 -12 -12 -12 -12 -12 -12 -12 -12 -12 -12 -12 -12 -12 -11 -11 -11 -11 -11
-12 -12 -12 -12 -12 -12 -12 -12 -12 -13 -13 -13 -13 -13 -13 -13 -13 -13 -13 -13 -13 -13 -13 -13 -13 -13 -13 -12 -12 -12 -12 -12 -12 -12 -12 -12 -12 -12 -12 -12 -12 -12 -12 -12
-11 -11 -12 -12 -12 -12 -12 -13 -13 -13 -13 -13 -13 -13 -13 -13 -14 -13 -13 -13 -13 -13 -13 -13 -13 -13 -13 -13 -13 -13 -13 -13 -13 -13 -13 -13 -13 -13 -13 -13 -13 -13 -12 -12
-11 -12 -12 -12 -12 -12 -13 -13 -13 -13 -13 -13 -13 -14 -14 -14 -14 -14 -14 -14 -13 -13 -13 -13 -13 -13 -13 -13 -13 -13 -13 -13 -13 -13 -13 -13 -13 -13 -13 -13 -13 -13 -13 -13
-12 -12 -12 -12 -12 -13 -13 -13 -13 -13 -14 -14 -14 -14 -14 -14 -14 -14 -14 -14 -14 -14 -14 -14 -14 -13 -14 -14 -14 -13 -13 -13 -13 -13 -14 -14 -14 -14 -14 -14 -13 -13 -13 -13
-12 -12 -12 -12 -12 -13 -13 -13 -13 -14 -14 -14 -14 -14 -14 -14 -14 -14 -14 -14 -14 -14 -14 -14 -14 -14 -14 -14 -14 -14 -14 -14 -14 -14 -14 -14 -14 -14 -14 -14 -14 -14 -14 -14
-12 -12 -12 -12 -13 -13 -13 -13 -14 -14 -14 -14 -14 -14 -14 -14 -14 -14 -14 -14 -14 -14 -14 -14 -14 -14 -14 -14 -14 -14 -14 -14 -14 -14 -14 -14 -14 -14 -14 -14 -14 -14 -14 -14
-12 -12 -12 -13 -13 -13 -13 -14 -14 -14 -14 -14 -14 -14 -14 -15 -15 -15 -15 -15 -15 -15 -15 -14 -14 -15 -15 -14 -14 -15 -15 -15 -15 -15 -15 -15 -15 -15 -15 -15 -15 -15 -15 -15
-12 -12 -13 -13 -13 -13 -13 -14 -14 -14 -14 -14 -14 -15 -15 -15 -15 -15 -15 -15 -15 -15 -15 -15 -15 -15 -15 -15 -15 -15 -15 -15 -15 -15 -15 -15 -15 -15 -15 -15 -15 -15 -15 -15
-13 -13 -13 -13 -13 -14 -14 -14 -14 -14 -14 -14 -14 -15 -15 -15 -15 -15 -15 -15 -15 -15 -15 -15 -15 -15 -15 -15 -15 -15 -15 -15 -15 -15 -15 -15 -15 -15 -15 -15 -15 -15 -15 -15
-13 -13 -13 -14 -14 -14 -14 -14 -15 -15 -15 -15 -15 -15 -15 -15 -15 -15 -15 -15 -15 -15 -15 -15 -15 -15 -15 -15 -15 -16 -16 -16 -16 -16 -15 -15 -15 -15 -15 -15 -15 -15 -15 -15
-13 -14 -14 -14 -14 -14 -15 -15 -15 -15 -15 -15 -15 -15 -15 -15 -15 -15 -16 -16 -15 -15 -15 -16 -16 -16 -16 -16 -16 -16 -16 -16 -16 -16 -16 -16 -16 -16 -16 -16 -16 -16 -16 -15
Wind_Speed
10 10 7 8 8 7 8 9 9 10 11 12 10 10 9 8 7 7 7 7 7 7 7 7 7 7 7 7 6 6 5 6 6 6 6 6 6 6 6 6 7 7 8 9
7 6 6 8 9 9 9 9 11 13 13 8 7 7 8 8 8 8 8 8 9 9 8 8 7 8 8 7 7 5 5 6 5 5 5 5 6 6 6 6 6 6 8 8
5 4 5 6 5 5 4 4 5 7 7 7 7 9 9 8 8 8 9 9 10 10 9 8 8 8 8 8 6 5 5 5 5 5 4 5 5 5 5 5 5 5 7 8
5 4 5 0 2 1 3 2 4 6 8 9 9 9 7 7 8 9 9 10 10 10 9 9 8 8 7 7 5 5 5 5 4 4 4 4 5 5 5 5 5 5 6 6
3 4 6 2 2 2 3 4 3 5 8 9 8 7 5 5 6 8 9 10 10 9 9 8 8 8 7 6 5 5 5 5 4 4 4 4 5 5 5 4 5 5 5 5
3 4 4 2 4 4 3 3 3 6 8 9 8 7 7 8 10 10 10 9 9 8 8 8 8 7 6 6 6 6 6 6 5 4 4 5 5 5 5 4 5 4 4 4
5 5 4 3 4 2 2 5 7 8 8 8 6 7 9 11 11 10 9 9 8 7 7 7 7 6 6 7 7 7 6 5 5 4 4 4 4 4 4 4 4 4 4 4
3 5 4 3 2 1 5 7 7 8 7 7 7 8 9 9 9 9 9 9 8 7 8 8 7 7 7 7 8 7 6 5 5 4 4 3 3 4 3 3 3 3 3 4
4 3 3 1 2 4 5 7 8 8 8 7 7 8 8 8 8 8 8 8 7 7 8 8 8 7 7 8 8 7 6 5 5 5 4 4 3 3 3 3 2 3 3 3
4 5 5 4 4 6 6 7 8 8 7 7 6 7 8 8 8 8 8 7 7 7 8 8 9 9 8 8 7 7 6 5 5 5 5 5 4 3 3 3 3 3 3 3
5 6 7 5 5 7 8 7 7 7 6 5 5 6 6 7 7 7 7 7 6 6 7 8 9 9 9 8 7 6 6 6 5 4 4 4 4 4 3 3 3 4 4 4
4 4 4 7 7 8 8 8 8 7 6 6 5 5 6 6 7 7 7 7 7 7 7 8 8 8 9 8 7 6 6 6 5 4 4 4 4 4 5 5 7 8 7 6
4 5 6 7 8 7 7 7 7 6 5 6 6 5 6 6 6 7 7 7 7 7 7 8 8 8 9 8 7 6 5 5 4 4 4 4 4 4 5 6 8 8 8 8
5 5 5 5 6 7 6 6 6 6 5 5 5 5 5 6 6 7 8 8 7 7 7 7 7 8 9 8 7 6 6 5 5 4 4 4 4 4 4 4 5 6 7 9
5 5 6 6 6 6 5 5 5 6 6 6 6 6 6 6 7 7 8 8 7 7 7 7 7 8 9 8 7 6 5 5 4 4 4 4 4 4 4 4 4 5 5 7
6 6 4 4 5 6 5 5 5 6 6 6 6 7 6 6 6 7 7 7 7 7 8 7 8 8 8 7 6 5 5 7 6 4 4 4 4 4 4 4 4 4 5 6
4 5 5 5 6 6 6 5 5 5 6 6 6 6 6 6 6 7 7 7 7 6 7 7 7 8 7 6 6 4 4 5 6 4 4 4 4 4 4 4 4 4 4 6
4 4 4 4 5 5 6 6 5 5 5 6 6 6 5 6 6 7 8 8 7 7 7 7 7 7 6 6 5 4 4 4 4 4 4 4 4 4 4 4 4 5 5 5
4 3 4 4 4 4 5 5 5 5 5 5 5 5 5 5 6 6 7 7 7 7 8 9 10 8 6 6 6 4 3 3 3 3 3 4 4 3 4 4 4 4 5 5
4 4 4 4 4 4 4 5 5 5 5 4 5 5 6 6 6 6 6 6 5 6 7 8 8 6 6 5 6 3 3 3 3 3 3 3 3 3 4 4 4 4 4 4
4 4 4 4 4 4 4 4 4 5 5 4 4 5 6 7 6 6 5 6 6 7 8 9 6 6 5 5 5 3 3 3 3 3 3 3 3 3 3 4 4 4 4 4
3 3 4 4 4 5 5 4 4 4 4 5 5 5 6 6 6 6 5 5 7 9 7 6 5 6 7 5 3 3 3 3 3 3 3 3 3 3 4 4 4 4 4 4
3 3 3 4 4 5 5 4 4 4 4 5 5 6 6 6 5 5 6 5 6 9 8 6 7 9 8 5 3 3 3 3 3 3 3 3 3 4 4 4 4 4 4 4
3 3 3 4 3 4 4 5 5 4 5 5 5 5 5 5 5 4 5 8 10 10 6 8 10 9 8 4 3 3 3 3 3 3 4 4 4 4 4 4 5 5 5 6
3 3 3 3 3 3 4 5 5 5 5 5 5 5 4 4 5 6 6 7 9 9 6 8 10 9 6 4 4 4 4 4 4 4 4 4 4 4 5 5 5 5 5 5
2 3 3 3 3 3 3 3 4 4 5 5 5 5 5 5 5 6 5 6 8 8 6 5 6 6 4 4 4 4 4 5 5 4 5 5 5 5 5 6 7 6 6 6
2 2 2 3 3 3 3 3 4 5 5 5 6 6 6 6 5 6 6 6 6 6 5 5 5 5 5 4 4 4 4 5 5 5 5 5 5 6 6 7 6 6 6 7
Wind_Direction
268 278 274 269 267 243 229 243 258 274 278 298 318 320 318 325 332 337 338 336 329 324 320 321 323 323 318 313 304 297 288 280 276 278 277 274 271 267 265 261 256 243 239 238
275 264 268 274 276 257 246 253 257 272 283 303 315 328 329 331 331 329 328 328 328 327 321 319 319 318 316 313 306 299 290 286 287 285 282 279 277 273 270 267 264 248 242 239
272 283 280 273 276 245 235 240 247 268 294 322 322 327 323 326 329 326 322 321 322 321 316 316 316 313 312 311 309 303 298 297 295 291 285 283 282 277 273 271 266 257 251 244
277 293 254 299 63 237 224 287 274 289 307 319 316 319 318 321 323 323 324 323 319 317 314 315 317 317 316 315 310 308 306 302 298 292 289 288 286 281 279 273 266 262 259 255
250 270 272 286 354 325 264 289 334 299 306 321 324 314 315 335 336 324 321 318 315 313 314 319 323 326 324 322 322 319 311 305 297 292 291 291 288 285 283 277 274 270 270 265
245 262 265 340 344 328 262 267 2 329 317 321 327 317 326 340 331 327 325 322 324 326 326 326 328 332 330 327 330 325 318 308 297 294 289 287 290 292 292 285 281 285 285 279
248 252 270 341 335 321 284 323 336 324 319 318 312 304 310 320 324 325 325 326 328 330 331 329 330 334 331 332 330 325 323 319 312 305 296 294 298 302 302 299 298 299 299 299
240 242 267 18 23 316 309 321 320 321 319 312 308 309 313 319 325 329 332 334 336 337 335 334 335 338 338 335 332 333 334 333 330 327 322 314 314 315 315 312 309 312 315 319
226 246 330 356 299 312 320 312 315 318 316 310 310 312 319 323 327 332 334 334 337 339 338 340 343 345 341 336 339 342 346 344 341 341 342 340 338 336 337 332 326 323 324 322
264 282 304 307 315 326 331 319 314 313 310 306 305 312 319 325 329 333 335 336 338 341 342 341 344 346 341 338 343 348 349 347 347 348 349 351 349 346 346 341 335 329 324 320
269 300 317 316 329 332 331 330 329 329 322 313 314 318 323 327 329 331 333 334 336 338 338 337 341 345 344 343 345 349 352 352 350 349 348 347 349 346 337 333 333 330 321 316
276 309 301 304 322 331 330 329 330 331 335 335 330 324 330 332 332 333 333 335 336 338 339 338 342 344 345 344 345 349 352 351 351 352 351 350 346 348 354 347 346 345 345 340
283 310 297 297 311 326 328 327 331 333 331 331 334 333 333 333 336 339 339 341 341 337 337 339 343 344 344 344 346 351 348 345 345 350 352 351 353 355 353 357 3 4 4 1
299 311 304 312 315 326 332 335 339 339 340 339 337 338 340 340 342 345 343 340 337 337 340 342 344 343 341 342 346 348 346 348 348 349 349 351 354 353 353 353 353 356 1 3
312 306 290 303 316 329 337 342 345 343 345 347 348 345 344 344 343 341 338 338 340 344 346 345 344 341 341 343 346 347 348 350 349 350 352 355 357 357 357 357 356 356 357 1
319 320 315 319 325 333 339 341 338 335 338 339 342 341 340 339 337 337 340 344 344 341 339 340 339 336 339 343 344 346 349 354 354 353 357 359 359 1 360 359 357 356 357 356
324 325 326 325 326 330 330 327 323 323 326 328 330 332 335 339 341 341 341 341 337 331 332 336 332 334 339 343 343 342 344 346 352 354 356 357 358 358 356 355 354 352 351 355
284 289 290 292 302 313 320 324 324 323 322 322 324 328 335 337 334 332 332 333 335 337 341 339 334 336 340 343 342 341 342 344 349 351 350 354 354 352 351 350 350 349 347 352
321 314 314 313 311 308 310 316 319 321 321 322 323 324 324 324 323 324 326 331 335 337 339 337 338 341 340 344 346 342 343 345 346 347 349 350 352 350 347 346 345 344 343 346
336 336 336 334 334 326 318 320 321 321 322 323 321 322 325 326 326 324 325 323 323 322 321 327 333 333 333 340 345 342 341 340 340 340 342 342 340 340 340 340 339 338 339 340
332 334 336 336 334 332 324 320 319 319 322 322 319 316 316 319 322 322 324 325 328 329 328 331 332 327 330 338 338 336 337 338 335 331 329 329 329 330 331 331 331 330 328 327
320 322 325 330 332 331 331 328 323 320 321 321 319 318 318 321 324 321 312 308 318 328 331 327 326 328 337 339 334 335 332 329 326 326 324 321 319 317 317 319 319 318 317 315
309 311 315 319 320 321 327 329 328 324 319 318 317 316 314 312 314 314 316 322 323 326 329 324 326 332 336 339 333 330 326 321 317 317 314 311 308 305 305 307 308 307 307 307
308 311 314 320 325 324 323 325 325 321 315 310 308 307 308 310 310 306 305 316 325 326 326 326 331 333 335 337 329 323 318 314 310 308 306 304 302 301 299 299 300 301 299 299
302 305 310 315 314 310 312 319 321 322 322 320 319 319 313 304 301 308 312 316 322 325 324 327 331 333 333 326 321 314 309 304 302 303 300 298 297 296 295 294 293 293 293 292
293 293 292 291 293 300 308 311 313 315 318 319 320 321 320 316 311 311 313 318 320 324 325 321 323 325 324 319 314 309 305 304 304 302 295 293 291 291 290 290 290 288 287 287
297 297 299 304 306 306 306 304 304 308 311 310 311 314 318 318 318 319 320 320 320 320 320 319 319 318 315 312 308 305 301 299 296 293 292 290 288 286 286 286 286 285 284 282
Height
1496 1496 1497 1496 1495 1496 1495 1488 1485 1477 1476 1474 1476 1476 1474 1472 1469 1467 1465 1463 1461 1458 1456 1454 1452 1449 1448 1445 1444 1442 1440 1439 1438 1438 1437 1436 1435 1435 1434 1434 1434 1434 1435 1436
1498 1495 1496 1495 1491 1490 1491 1490 1487 1483 1479 1479 1478 1477 1474 1471 1469 1466 1464 1462 1459 1456 1454 1451 1449 1446 1444 1442 1440 1438 1437 1435 1434 1433 1432 1432 1431 1430 1429 1429 1429 1429 1430 1430
1489 1494 1494 1486 1488 1489 1489 1489 1488 1482 1480 1479 1477 1476 1473 1471 1468 1465 1463 1460 1457 1454 1451 1448 1446 1443 1441 1439 1437 1435 1433 1432 1431 1430 1429 1428 1427 1426 1425 1425 1424 1424 1425 1425
1492 1492 1487 1484 1490 1489 1488 1488 1487 1485 1482 1480 1478 1475 1472 1470 1467 1464 1461 1458 1455 1451 1448 1445 1443 1441 1438 1436 1434 1432 1430 1428 1427 1426 1425 1425 1424 1423 1422 1421 1420 1420 1420 1420
1493 1488 1481 1484 1489 1490 1489 1485 1485 1484 1482 1479 1476 1472 1469 1468 1466 1463 1460 1456 1453 1449 1446 1443 1440 1438 1436 1433 1431 1429 1427 1426 1424 1424 1423 1422 1420 1419 1419 1418 1417 1417 1416 1415
1494 1489 1482 1484 1490 1489 1489 1482 1484 1483 1481 1478 1476 1470 1468 1467 1464 1461 1457 1454 1451 1447 1444 1441 1438 1436 1433 1430 1428 1426 1424 1423 1422 1421 1420 1419 1418 1417 1416 1415 1414 1413 1412 1412
1494 1490 1484 1491 1491 1489 1486 1483 1485 1483 1480 1478 1476 1474 1470 1466 1462 1459 1455 1452 1449 1445 1442 1439 1436 1434 1431 1428 1425 1423 1421 1420 1419 1418 1418 1417 1416 1415 1413 1412 1411 1409 1409 1408
1496 1492 1489 1493 1491 1491 1489 1487 1484 1482 1479 1477 1474 1470 1467 1464 1460 1457 1453 1450 1447 1443 1440 1438 1435 1432 1429 1426 1424 1422 1419 1418 1417 1416 1415 1414 1413 1412 1411 1409 1408 1407 1406 1405
1496 1494 1492 1492 1491 1490 1488 1486 1483 1480 1477 1475 1471 1468 1465 1461 1458 1455 1452 1448 1446 1442 1439 1437 1434 1431 1427 1425 1423 1420 1418 1417 1416 1415 1413 1412 1411 1410 1408 1407 1406 1405 1404 1403
1496 1492 1492 1491 1489 1488 1486 1484 1481 1478 1475 1472 1469 1466 1463 1460 1456 1453 1450 1447 1444 1441 1438 1435 1433 1430 1427 1424 1422 1419 1417 1415 1414 1413 1412 1411 1409 1408 1407 1406 1405 1404 1403 1402
1495 1493 1491 1488 1488 1486 1484 1481 1479 1476 1473 1470 1467 1464 1461 1458 1455 1452 1449 1447 1444 1441 1438 1435 1433 1430 1427 1425 1422 1419 1417 1415 1414 1413 1411 1410 1408 1407 1406 1405 1404 1403 1401 1401
1495 1494 1494 1490 1487 1485 1482 1479 1477 1474 1470 1468 1466 1463 1460 1458 1455 1452 1449 1446 1443 1440 1437 1435 1432 1430 1427 1425 1422 1420 1417 1415 1414 1412 1410 1409 1408 1407 1405 1404 1403 1402 1400 1399
1496 1493 1491 1488 1486 1483 1481 1478 1475 1472 1470 1467 1465 1462 1460 1457 1454 1451 1448 1445 1442 1440 1437 1434 1432 1429 1427 1425 1422 1420 1417 1416 1414 1412 1410 1409 1407 1405 1404 1403 1402 1401 1399 1398
1493 1491 1488 1486 1484 1482 1479 1476 1474 1471 1469 1467 1464 1462 1459 1456 1453 1451 1448 1445 1442 1439 1437 1434 1431 1429 1427 1424 1422 1420 1418 1416 1414 1412 1410 1408 1406 1405 1404 1402 1400 1399 1399 1397
1491 1489 1487 1484 1482 1480 1478 1475 1472 1470 1468 1466 1463 1461 1458 1456 1453 1450 1447 1444 1442 1439 1436 1434 1431 1429 1426 1424 1422 1419 1417 1415 1414 1412 1410 1408 1406 1405 1404 1403 1401 1399 1398 1397
1489 1487 1485 1483 1481 1478 1476 1474 1472 1469 1467 1465 1463 1460 1458 1455 1452 1449 1447 1444 1441 1438 1436 1433 1431 1428 1426 1424 1421 1419 1417 1415 1413 1411 1410 1408 1407 1405 1404 1402 1401 1400 1398 1397
1487 1485 1483 1481 1479 1477 1475 1473 1471 1469 1466 1464 1462 1460 1457 1455 1452 1449 1446 1444 1441 1438 1435 1433 1430 1428 1426 1423 1421 1419 1417 1415 1413 1412 1410 1409 1407 1406 1404 1403 1402 1400 1399 1398
1487 1485 1483 1480 1478 1476 1474 1472 1470 1468 1466 1463 1461 1459 1456 1454 1451 1448 1446 1443 1441 1438 1435 1432 1430 1427 1425 1423 1421 1419 1417 1415 1413 1412 1410 1409 1408 1406 1405 1404 1402 1400 1399 1398
1485 1483 1481 1479 1477 1475 1473 1471 1469 1467 1465 1462 1460 1457 1455 1453 1450 1447 1445 1442 1440 1437 1434 1432 1429 1427 1424 1422 1420 1418 1416 1415 1413 1412 1410 1409 1408 1406 1405 1403 1402 1400 1398 1397
1483 1482 1480 1478 1476 1474 1472 1470 1467 1465 1463 1461 1459 1456 1454 1451 1449 1446 1444 1441 1439 1436 1433 1431 1428 1426 1424 1422 1420 1418 1416 1414 1413 1411 1410 1408 1407 1405 1404 1402 1401 1399 1398 1396
1482 1480 1478 1476 1474 1472 1470 1468 1466 1464 1462 1460 1457 1455 1452 1450 1448 1445 1442 1440 1438 1435 1432 1430 1427 1425 1423 1421 1419 1417 1415 1414 1412 1410 1409 1407 1406 1404 1403 1401 1400 1398 1397 1395
1481 1479 1477 1475 1473 1471 1469 1467 1465 1463 1460 1458 1456 1454 1451 1449 1446 1444 1441 1439 1436 1434 1431 1428 1426 1424 1422 1420 1418 1416 1414 1412 1411 1409 1407 1406 1404 1403 1401 1400 1398 1397 1395 1394
1479 1478 1476 1474 1472 1470 1468 1466 1463 1461 1459 1457 1454 1452 1450 1447 1445 1442 1439 1437 1434 1432 1429 1427 1425 1423 1420 1418 1416 1414 1412 1411 1409 1407 1406 1404 1402 1401 1399 1398 1396 1394 1393 1392
1478 1476 1474 1472 1470 1468 1466 1464 1462 1460 1457 1455 1453 1450 1448 1445 1443 1441 1438 1435 1433 1430 1427 1425 1423 1421 1418 1416 1414 1412 1410 1409 1407 1405 1404 1402 1400 1398 1397 1395 1393 1392 1390 1389
1476 1474 1472 1470 1468 1466 1464 1462 1460 1458 1455 1453 1451 1449 1446 1443 1441 1438 1436 1433 1430 1428 1425 1423 1421 1418 1416 1414 1412 1410 1408 1406 1405 1403 1401 1399 1398 1396 1394 1392 1391 1389 1387 1386
1473 1472 1470 1468 1467 1465 1462 1460 1458 1456 1453 1451 1449 1446 1444 1441 1438 1436 1433 1430 1428 1425 1423 1420 1418 1416 1414 1412 1410 1408 1406 1404 1402 1400 1398 1397 1395 1393 1391 1389 1387 1386 1384 1382
1471 1470 1468 1466 1465 1463 1461 1458 1456 1454 1451 1449 1446 1444 1442 1439 1436 1434 1431 1428 1425 1423 1420 1418 1416 1414 1412 1409 1407 1405 1403 1401 1399 1397 1395 1393 1391 1389 1387 1386 1384 1382 1380 1378